FW6209 Weather Reports


Display with metric or nautical units.
time (UTC)temp
F
wind
direction
speed
MPH
gust
MPH
rain 1hr
in
rain 24hr
in
rain mn
in
humidity
%
barometer
mb
20260904011258 70 246 1.0 7.0 0.00 0.00 0.00 67 1011.6
20260904011012 71 169 1.0 7.0 0.00 0.00 0.00 66 1011.6
20260904010245 71 243 1.0 6.0 0.00 0.00 0.00 66 1011.6
20260904005739 71 214 1.0 6.0 0.00 0.00 0.00 66 1011.5
20260904005233 71 241 2.0 9.0 0.00 0.00 0.00 66 1011.6
20260904004727 71 223 2.0 9.0 0.00 0.00 0.00 67 1011.6
20260904004221 71 233 2.0 10.0 0.00 0.00 0.00 67 1011.7
20260904003716 72 223 2.0 10.0 0.00 0.00 0.00 66 1011.6
20260904003209 72 223 1.0 8.0 0.00 0.00 0.00 66 1011.6
20260904002925 72 223 2.0 9.0 0.00 0.00 0.00 66 1011.7
20260904002204 72 286 3.0 9.0 0.00 0.00 0.00 66 1011.8
20260904001700 73 213 2.0 9.0 0.00 0.00 0.00 65 1011.8
20260904001159 73 182 3.0 9.0 0.00 0.00 0.00 65 1011.8
20260904000916 73 180 3.0 9.0 0.00 0.00 0.00 64 1011.8
20260904000425 73 269 3.0 11.0 0.00 0.00 0.00 64 1011.9
20260903235656 74 259 2.0 11.0 0.00 0.00 0.00 64 1011.9
20260903235201 74 228 3.0 11.0 0.00 0.00 0.00 64 1011.7
20260903234658 74 248 4.0 11.0 0.00 0.00 0.00 64 1011.8
20260903234154 74 252 4.0 12.0 0.00 0.00 0.00 64 1011.8
20260903233921 74 180 4.0 12.0 0.00 0.00 0.00 64 1011.7
20260903233154 75 237 3.0 11.0 0.00 0.00 0.00 62 1011.8
20260903232655 75 210 3.0 10.0 0.00 0.00 0.00 61 1011.8
20260903232417 76 250 4.0 10.0 0.00 0.00 0.00 60 1012.0
20260903231654 76 217 4.0 10.0 0.00 0.00 0.00 60 1011.7
20260903231153 76 184 3.0 10.0 0.00 0.00 0.00 60 1011.7
20260903230653 76 221 3.0 9.0 0.00 0.00 0.00 60 1011.8
20260903230151 76 207 2.0 11.0 0.00 0.00 0.00 59 1012.0
20260903225648 76 229 2.0 11.0 0.00 0.00 0.00 58 1011.9
20260903225152 76 205 4.0 12.0 0.00 0.00 0.00 58 1012.0
20260903224916 76 244 3.0 12.0 0.00 0.00 0.00 57 1012.1
20260903224140 76 225 4.0 12.0 0.00 0.00 0.00 57 1012.1
20260903223634 76 253 4.0 12.0 0.00 0.00 0.00 55 1011.9
20260903223128 76 234 4.0 11.0 0.00 0.00 0.00 56 1012.0
20260903222622 77 225 4.0 13.0 0.00 0.00 0.00 54 1012.1
20260903222116 77 213 4.0 13.0 0.00 0.00 0.00 56 1012.0
20260903221611 77 197 4.0 10.0 0.00 0.00 0.00 52 1012.0
20260903221104 77 163 3.0 11.0 0.00 0.00 0.00 55 1012.1
20260903220820 77 242 2.0 14.0 0.00 0.00 0.00 56 1012.2
20260903220314 78 217 2.0 14.0 0.00 0.00 0.00 56 1012.3
20260903215546 78 173 4.0 16.0 0.00 0.00 0.00 57 1012.2
20260903215040 77 229 4.0 16.0 0.00 0.00 0.00 57 1012.3
20260903215014 77 175 5.0 16.0 0.00 0.00 0.00 57 1012.3
20260903214028 77 254 8.0 16.0 0.00 0.00 0.00 56 1012.3
20260903213535 77 238 9.0 16.0 0.00 0.00 0.00 59 1012.3
20260903213016 78 240 8.0 16.0 0.00 0.00 0.00 58 1012.4
20260903212510 78 227 8.0 16.0 0.00 0.00 0.00 57 1012.4
20260903212005 78 250 5.0 16.0 0.00 0.00 0.00 56 1012.3
20260903211458 78 243 4.0 14.0 0.00 0.00 0.00 56 1012.4
20260903210952 78 208 6.0 14.0 0.00 0.00 0.00 53 1012.2
20260903210446 78 275 7.0 14.0 0.00 0.00 0.00 54 1012.4
20260903205941 79 210 6.0 14.0 0.00 0.00 0.00 54 1012.4
20260903205635 78 261 7.0 14.0 0.00 0.00 0.00 56 1012.3
20260903205521 78 235 6.0 12.0 0.00 0.00 0.00 56 1012.3
20260903204422 78 224 6.0 14.0 0.00 0.00 0.00 56 1012.4
20260903204149 79 254 4.0 14.0 0.00 0.00 0.00 56 1012.4
20260903203410 79 225 4.0 15.0 0.00 0.00 0.00 55 1012.4
20260903203127 79 227 5.0 15.0 0.00 0.00 0.00 55 1012.4
20260903202357 79 201 6.0 15.0 0.00 0.00 0.00 56 1012.4
20260903201852 79 234 4.0 15.0 0.00 0.00 0.00 55 1012.5
20260903201346 80 271 2.0 12.0 0.00 0.00 0.00 55 1012.6
20260903201058 80 177 2.0 12.0 0.00 0.00 0.00 55 1012.6
20260903200334 80 240 1.0 9.0 0.00 0.00 0.00 54 1012.7
20260903195828 80 203 2.0 12.0 0.00 0.00 0.00 53 1012.7
20260903195322 80 241 3.0 12.0 0.00 0.00 0.00 54 1012.7
20260903194815 80 269 3.0 11.0 0.00 0.00 0.00 53 1012.7
20260903194310 80 232 1.0 10.0 0.00 0.00 0.00 53 1012.8
20260903193804 79 192 3.0 10.0 0.00 0.00 0.00 53 1012.8
20260903193525 80 278 3.0 10.0 0.00 0.00 0.00 51 1012.9
20260903192752 80 270 2.0 8.0 0.00 0.00 0.00 49 1012.9
20260903192516 80 252 2.0 8.0 0.00 0.00 0.00 48 1012.9
20260903191740 81 258 1.0 7.0 0.00 0.00 0.00 47 1013.0
20260903191453 81 261 1.0 7.0 0.00 0.00 0.00 44 1013.0
20260903190729 81 269 1.0 7.0 0.00 0.00 0.00 36 1013.2
20260903190223 81 196 1.0 7.0 0.00 0.00 0.00 33 1013.2
20260903185935 81 244 1.0 7.0 0.00 0.00 0.00 32 1013.3
20260903185210 80 162 1.0 8.0 0.00 0.00 0.00 33 1013.4
20260903184704 80 234 0.0 8.0 0.00 0.00 0.00 35 1013.6
20260903184159 80 213 0.0 6.0 0.00 0.00 0.00 35 1013.8
20260903183653 80 138 1.0 5.0 0.00 0.00 0.00 34 1013.8
20260903183146 80 143 1.0 5.0 0.00 0.00 0.00 34 1013.8
20260903182640 80 241 0.0 5.0 0.00 0.00 0.00 33 1013.9
20260903182134 79 209 0.0 9.0 0.00 0.00 0.00 33 1014.0
20260903181848 78 229 1.0 9.0 0.00 0.00 0.00 34 1014.1
20260903181122 78 184 1.0 8.0 0.00 0.00 0.00 33 1014.0
20260903180617 77 199 0.0 6.0 0.00 0.00 0.00 35 1014.1
20260903180110 77 128 0.0 3.0 0.00 0.00 0.00 35 1014.0
20260903175605 77 92 0.0 5.0 0.00 0.00 0.00 36 1014.0
20260903175059 76 15 0.0 5.0 0.00 0.00 0.00 40 1014.1
20260903175042 76 234 1.0 5.0 0.00 0.00 0.00 40 1014.1
20260903174047 76 177 0.0 5.0 0.00 0.00 0.00 40 1014.2
20260903173540 76 141 0.0 4.0 0.00 0.00 0.00 43 1014.2
20260903173035 75 217 0.0 4.0 0.00 0.00 0.00 45 1014.1
20260903172528 75 205 0.0 4.0 0.00 0.00 0.00 47 1014.2
20260903172241 74 151 1.0 6.0 0.00 0.00 0.00 46 1014.1
20260903171737 74 128 1.0 6.0 0.00 0.00 0.00 50 1014.1
20260903171011 73 121 0.0 7.0 0.00 0.00 0.00 52 1014.2
20260903170505 73 172 0.0 7.0 0.00 0.00 0.00 53 1014.2
20260903170221 73 92 1.0 7.0 0.00 0.00 0.00 54 1014.2
20260903165454 73 106 0.0 7.0 0.00 0.00 0.00 53 1014.1
20260903164946 73 84 0.0 0.0 0.00 0.00 0.00 58 1014.1
20260903164441 72 355 0.0 0.0 0.00 0.00 0.00 60 1014.2
20260903163934 72 124 0.0 0.0 0.00 0.00 0.00 60 1014.2
20260903163428 71 240 0.0 0.0 0.00 0.00 0.00 60 1014.2
20260903162922 71 170 0.0 0.0 0.00 0.00 0.00 64 1014.1
20260903162416 70 128 0.0 0.0 0.00 0.00 0.00 64 1014.1
20260903161910 70 126 0.0 0.0 0.00 0.00 0.00 66 1014.0
20260903161406 70 171 0.0 0.0 0.00 0.00 0.00 68 1014.0
20260903161121 70 104 0.0 0.0 0.00 0.00 0.00 66 1014.1
20260903160353 70 163 0.0 0.0 0.00 0.00 0.00 71 1014.2
20260903155846 69 173 0.0 0.0 0.00 0.00 0.00 72 1014.2
20260903155340 68 105 0.0 0.0 0.00 0.00 0.00 76 1014.3
20260903154835 68 32 0.0 0.0 0.00 0.00 0.00 78 1014.2
20260903154556 67 24 0.0 0.0 0.00 0.00 0.00 78 1014.3
20260903154045 67 85 0.0 0.0 0.00 0.00 0.00 78 1014.4
20260903153317 67 71 0.0 0.0 0.00 0.00 0.00 79 1014.4
20260903152810 67 11 0.0 0.0 0.00 0.00 0.00 80 1014.4
20260903152306 67 27 0.0 0.0 0.00 0.00 0.00 81 1014.4
20260903151758 66 53 0.0 0.0 0.00 0.00 0.00 82 1014.4
20260903151252 66 19 0.0 0.0 0.00 0.00 0.00 83 1014.4
20260903150746 65 90 0.0 0.0 0.00 0.00 0.00 82 1014.3
20260903150502 64 102 0.0 0.0 0.00 0.00 0.00 85 1014.4
20260903145953 63 201 0.0 0.0 0.00 0.00 0.00 89 1014.4
20260903145228 63 246 0.0 0.0 0.00 0.00 0.00 91 1014.4
20260903144722 62 246 0.0 0.0 0.00 0.00 0.00 91 1014.3
20260903144216 62 246 0.0 0.0 0.00 0.00 0.00 90 1014.2
20260903143937 62 211 0.0 0.0 0.00 0.00 0.00 93 1014.2
20260903143204 62 254 0.0 0.0 0.00 0.00 0.00 94 1014.2
20260903142659 62 254 0.0 0.0 0.00 0.00 0.00 94 1014.0
20260903142152 61 254 0.0 0.0 0.00 0.00 0.00 94 1014.1
20260903141646 61 254 0.0 0.0 0.00 0.00 0.00 95 1014.0
20260903141140 60 254 0.0 0.0 0.00 0.00 0.00 95 1014.0
20260903140634 60 254 0.0 0.0 0.00 0.00 0.00 95 1013.9
20260903140128 60 254 0.0 0.0 0.00 0.00 0.00 95 1014.0
20260903135622 59 254 0.0 0.0 0.00 0.00 0.00 95 1013.8
20260903135116 59 254 0.0 0.0 0.00 0.00 0.00 95 1013.8
20260903134610 58 254 0.0 0.0 0.00 0.00 0.00 95 1013.7
20260903134105 58 254 0.0 0.0 0.00 0.00 0.00 95 1013.8
20260903133558 58 254 0.0 0.0 0.00 0.00 0.00 95 1013.7
20260903133052 58 254 0.0 0.0 0.00 0.00 0.00 95 1013.4
20260903132805 58 254 0.0 0.0 0.00 0.00 0.00 95 1013.4
20260903132040 58 254 0.0 0.0 0.00 0.00 0.00 95 1013.4
20260903131535 58 254 0.0 0.0 0.00 0.00 0.00 95 1013.3
20260903131028 58 254 0.0 0.0 0.00 0.00 0.00 95 1013.4
20260903130522 58 254 0.0 0.0 0.00 0.00 0.00 94 1013.4
20260903130018 58 254 0.0 0.0 0.00 0.00 0.00 94 1013.4
20260903125510 58 254 0.0 0.0 0.00 0.00 0.00 94 1013.6
20260903125004 58 254 0.0 0.0 0.00 0.00 0.00 94 1013.4
20260903124458 58 254 0.0 0.0 0.00 0.00 0.00 94 1013.3
20260903123952 58 254 0.0 0.0 0.00 0.00 0.00 94 1013.3
20260903123446 58 254 0.0 0.0 0.00 0.00 0.00 94 1013.3
20260903122940 58 254 0.0 0.0 0.00 0.00 0.00 94 1013.3
20260903122434 58 254 0.0 0.0 0.00 0.00 0.00 94 1013.4
20260903121928 58 254 0.0 0.0 0.00 0.00 0.00 94 1013.3
20260903121422 58 254 0.0 0.0 0.00 0.00 0.00 94 1013.4
20260903121138 58 254 0.0 0.0 0.00 0.00 0.00 94 1013.3
20260903120410 58 254 0.0 0.0 0.00 0.00 0.00 94 1013.4
20260903115904 58 254 0.0 0.0 0.00 0.00 0.00 93 1013.3
20260903115357 58 254 0.0 0.0 0.00 0.00 0.00 93 1013.3
20260903114852 58 254 0.0 0.0 0.00 0.00 0.00 93 1013.3
20260903114615 58 254 0.0 0.0 0.00 0.00 0.00 93 1013.4
20260903113840 58 254 0.0 0.0 0.00 0.00 0.00 93 1013.4
20260903113334 58 254 0.0 0.0 0.00 0.00 0.00 93 1013.4
20260903113045 58 254 0.0 0.0 0.00 0.00 0.00 93 1013.4
20260903112321 59 254 0.0 0.0 0.00 0.00 0.00 92 1013.4
20260903111816 59 254 0.0 0.0 0.00 0.00 0.00 92 1013.4
20260903111310 59 254 0.0 0.0 0.00 0.00 0.00 92 1013.6
20260903111257 59 254 0.0 0.0 0.00 0.00 0.00 93 1013.7
20260903110519 59 254 0.0 0.0 0.00 0.00 0.00 93 1013.8
20260903105755 59 254 0.0 0.0 0.00 0.00 0.00 93 1013.8
20260903105246 59 254 0.0 0.0 0.00 0.00 0.00 94 1013.7
20260903104740 59 254 0.0 0.0 0.00 0.00 0.00 93 1013.8
20260903104234 59 254 0.0 0.0 0.00 0.00 0.00 94 1013.9
20260903104215 59 254 0.0 0.0 0.00 0.00 0.00 94 1013.8
20260903103222 59 254 0.0 0.0 0.00 0.00 0.00 93 1013.9
20260903102716 58 254 0.0 0.0 0.00 0.00 0.00 93 1013.8
20260903102211 58 254 0.0 0.0 0.00 0.00 0.00 92 1014.0
20260903101704 58 236 0.0 0.0 0.00 0.00 0.00 91 1014.0
20260903101158 58 236 0.0 0.0 0.00 0.00 0.00 91 1014.0
20260903100914 59 236 0.0 0.0 0.00 0.00 0.00 91 1014.1
20260903100146 59 236 0.0 0.0 0.00 0.00 0.00 91 1014.0
20260903095640 59 236 0.0 0.0 0.00 0.00 0.00 91 1014.0
20260903095134 59 236 0.0 0.0 0.00 0.00 0.00 92 1014.0
20260903094629 59 236 0.0 0.0 0.00 0.00 0.00 91 1014.1
20260903094122 59 236 0.0 0.0 0.00 0.00 0.00 91 1014.2
20260903093616 59 236 0.0 0.0 0.00 0.00 0.00 91 1014.2
20260903093333 59 236 0.0 0.0 0.00 0.00 0.00 91 1014.2
20260903092605 60 236 0.0 0.0 0.00 0.00 0.00 91 1014.2
20260903092256 60 236 0.0 0.0 0.00 0.00 0.00 92 1014.3
20260903092204 60 236 0.0 0.0 0.00 0.00 0.00 92 1014.3
20260903091048 60 236 0.0 0.0 0.00 0.00 0.00 92 1014.3
20260903090805 60 236 0.0 0.0 0.00 0.00 0.00 92 1014.3
20260903090034 60 236 0.0 0.0 0.00 0.00 0.00 92 1014.2
20260903085527 59 236 0.0 0.0 0.00 0.00 0.00 92 1014.3
20260903085022 59 236 0.0 0.0 0.00 0.00 0.00 92 1014.3
20260903084518 59 236 0.0 0.0 0.00 0.00 0.00 92 1014.4
20260903084009 59 236 0.0 0.0 0.00 0.00 0.00 92 1014.5
20260903083505 59 236 0.0 0.0 0.00 0.00 0.00 91 1014.6
20260903083008 60 236 0.0 0.0 0.00 0.00 0.00 92 1014.5
20260903082716 60 236 0.0 0.0 0.00 0.00 0.00 92 1014.6
20260903082513 60 236 0.0 0.0 0.00 0.00 0.00 92 1014.6
20260903082204 60 236 0.0 0.0 0.00 0.00 0.00 92 1014.7
20260903081950 60 236 0.0 0.0 0.00 0.00 0.00 92 1014.7
20260903081658 60 236 0.0 0.0 0.00 0.00 0.00 92 1014.7
20260903081158 60 236 0.0 0.0 0.00 0.00 0.00 92 1014.7
20260903080938 60 236 0.0 0.0 0.00 0.00 0.00 92 1014.7
20260903080428 60 236 0.0 0.0 0.00 0.00 0.00 92 1014.6
20260903075922 60 236 0.0 0.0 0.00 0.00 0.00 92 1014.7
20260903075417 60 236 0.0 0.0 0.00 0.00 0.00 91 1014.7
20260903074910 60 236 0.0 0.0 0.00 0.00 0.00 91 1014.8
20260903074405 60 236 0.0 0.0 0.00 0.00 0.00 91 1014.8
20260903073858 60 236 0.0 0.0 0.00 0.00 0.00 91 1014.8
20260903073352 60 236 0.0 0.0 0.00 0.00 0.00 92 1014.8
20260903073323 60 236 0.0 0.0 0.00 0.00 0.00 91 1014.7
20260903072603 60 236 0.0 0.0 0.00 0.00 0.00 91 1014.7
20260903071834 60 236 0.0 0.0 0.00 0.00 0.00 91 1014.6
20260903071328 60 236 0.0 0.0 0.00 0.00 0.00 90 1014.6
20260903070822 60 236 0.0 0.0 0.00 0.00 0.00 91 1014.8
20260903070539 60 236 0.0 0.0 0.00 0.00 0.00 90 1014.7
20260903065811 60 236 0.0 0.0 0.00 0.00 0.00 90 1014.7
20260903065528 60 236 0.0 0.0 0.00 0.00 0.00 90 1014.7
20260903064759 61 236 0.0 0.0 0.00 0.00 0.00 90 1014.8
20260903064253 61 236 0.0 0.0 0.00 0.00 0.00 90 1014.7
20260903063747 61 236 0.0 0.0 0.00 0.00 0.00 90 1014.8
20260903063240 61 236 0.0 0.0 0.00 0.00 0.00 90 1014.8
20260903062734 60 236 0.0 0.0 0.00 0.00 0.00 90 1014.7
20260903062230 60 236 0.0 0.0 0.00 0.00 0.00 89 1014.8
20260903061945 60 236 0.0 0.0 0.00 0.00 0.00 89 1014.8
20260903061217 60 236 0.0 0.0 0.00 0.00 0.00 89 1014.8
20260903060711 60 236 0.0 0.0 0.00 0.00 0.00 89 1014.8
20260903060205 61 236 0.0 0.0 0.00 0.00 0.00 89 1015.0
20260903055659 60 236 0.0 0.0 0.00 0.00 0.00 89 1015.0
20260903055153 61 236 0.0 0.0 0.00 0.00 0.00 89 1014.8
20260903054648 61 236 0.0 0.0 0.00 0.00 0.00 89 1014.9
20260903054622 61 236 0.0 0.0 0.00 0.00 0.00 89 1014.9
20260903054112 61 236 0.0 0.0 0.00 0.00 0.00 89 1015.1
20260903054057 61 236 0.0 0.0 0.00 0.00 0.00 89 1015.1
20260903052642 61 236 0.0 0.0 0.00 0.00 0.00 89 1015.1
20260903052636 61 236 0.0 0.0 0.00 0.00 0.00 89 1015.0
20260903051638 61 236 0.0 0.0 0.00 0.00 0.00 89 1015.0
20260903051141 61 66 0.0 0.0 0.00 0.00 0.00 88 1015.0
20260903050639 61 66 0.0 0.0 0.00 0.00 0.00 88 1015.0
20260903050140 61 66 0.0 0.0 0.00 0.00 0.00 87 1015.0
20260903045639 62 228 0.0 0.0 0.00 0.00 0.00 87 1014.9
20260903045405 62 232 0.0 0.0 0.00 0.00 0.00 87 1015.0
20260903044637 62 225 0.0 0.0 0.00 0.00 0.00 86 1014.9
20260903044138 62 226 0.0 0.0 0.00 0.00 0.00 85 1015.0
20260903043638 62 226 0.0 0.0 0.00 0.00 0.00 85 1015.0
20260903043138 62 226 0.0 0.0 0.00 0.00 0.00 86 1015.0
20260903042632 62 226 0.0 0.0 0.00 0.00 0.00 85 1014.9
20260903042130 62 226 0.0 0.0 0.00 0.00 0.00 85 1014.7
20260903041628 62 243 0.0 0.0 0.00 0.00 0.00 85 1014.8
20260903041143 62 227 0.0 0.0 0.00 0.00 0.00 84 1014.7
20260903040849 63 223 0.0 0.0 0.00 0.00 0.00 84 1014.7
20260903040124 63 228 0.0 0.0 0.00 0.00 0.00 83 1014.7
20260903040111 63 224 0.0 0.0 0.00 0.00 0.00 82 1014.6
20260903035124 63 217 0.0 0.0 0.00 0.00 0.00 79 1014.6
20260903034624 63 198 0.0 0.0 0.00 0.00 0.00 78 1014.4
20260903034343 63 171 0.0 0.0 0.00 0.00 0.00 78 1014.4
20260903033845 63 197 0.0 0.0 0.00 0.00 0.00 77 1014.5
20260903033123 63 172 0.0 0.0 0.00 0.00 0.00 77 1014.4
20260903032622 63 184 0.0 0.0 0.00 0.00 0.00 76 1014.3
20260903032137 64 169 0.0 0.0 0.00 0.00 0.00 77 1014.3
20260903031621 64 171 0.0 0.0 0.00 0.00 0.00 74 1014.3
20260903031612 64 178 0.0 0.0 0.00 0.00 0.00 74 1014.3
20260903030620 64 180 0.0 0.0 0.00 0.00 0.00 74 1014.2
20260903030559 65 180 0.0 0.0 0.00 0.00 0.00 73 1014.1
20260903030401 65 180 0.0 0.0 0.00 0.00 0.00 73 1014.1
20260903030059 66 167 0.0 0.0 0.00 0.00 0.00 71 1014.1
20260903025719 65 202 0.0 0.0 0.00 0.00 0.00 72 1014.1
20260903024616 66 216 0.0 0.0 0.00 0.00 0.00 70 1014.1
20260903024338 67 221 0.0 0.0 0.00 0.00 0.00 69 1014.0
20260903024145 67 221 0.0 0.0 0.00 0.00 0.00 69 1014.0
20260903023637 67 221 0.0 0.0 0.00 0.00 0.00 69 1013.9
20260903023115 67 231 0.0 0.0 0.00 0.00 0.00 68 1013.9
20260903022616 68 232 0.0 0.0 0.00 0.00 0.00 68 1013.9
20260903022336 68 224 0.0 0.0 0.00 0.00 0.00 65 1013.9
20260903021616 69 249 0.0 0.0 0.00 0.00 0.00 65 1013.9
20260903021604 69 238 0.0 0.0 0.00 0.00 0.00 63 1014.0
20260903021140 69 238 0.0 0.0 0.00 0.00 0.00 63 1014.0
20260903020616 70 227 0.0 0.0 0.00 0.00 0.00 62 1013.9
20260903020112 70 223 0.0 0.0 0.00 0.00 0.00 60 1013.9
20260903015612 71 236 0.0 0.0 0.00 0.00 0.00 58 1013.8
20260903015112 71 239 0.0 0.0 0.00 0.00 0.00 58 1013.8
20260903014611 71 215 0.0 0.0 0.00 0.00 0.00 56 1013.8
20260903014336 72 178 0.0 0.0 0.00 0.00 0.00 55 1013.9
20260903013611 72 190 0.0 5.0 0.00 0.00 0.00 54 1013.9
20260903013335 73 169 0.0 5.0 0.00 0.00 0.00 54 1013.9
20260903012837 73 226 1.0 5.0 0.00 0.00 0.00 53 1014.0
20260903012559 74 252 1.0 5.0 0.00 0.00 0.00 52 1013.9
20260903011608 74 241 0.0 5.0 0.00 0.00 0.00 52 1013.9